Погода в Акбайтале

Погода в Акбайтале : погода сейчас, прогноз погоды и архив. Всё, что Вы хотите узнать о погоде в Акбайтале!

Хотите узнать прогноз погоды в Акбайтале? Тогда Вам сюда: Погода в Акбайтале

Поиск расширенной информации на нашем сайте:

Полезная информация: Обслуживанию и ремонту аппаратов высокого давления.
купим бульдозер коматсу д-355а

Другие новости

Новости СМИ2

Главная страница сайта

Новости сайта

02.10.2013

Напоминаем, что на нашем новом сайте вы можете получить высокодетализированные прогнозы погоды по пунктам России, СНГ и мира (включающие важные для авиации метеовеличины, такие как направление и скорость ветра, видимость, явления погоды, количество и форма облачности, нижняя и верхняя граница облачности), а также ознакомиться с разнообразными материалами по авиационной метеорологии и подборкой полезных ссылок на эту тему.

Сайт Метеоцентр.Азия посвящён разработке технологий оптимизации авиаметеорологического обслуживания, включая проектирование и перспективное создание нескольких автоматизированных авиаметеорологических систем:
- система выпуска высокодетальных прогностических карт явлений погоды для нижнего воздушного пространства по России и ближнему зарубежью;
- система верификации прогнозов TAF (выпускаемых синоптиками официальных АМСГ РФ и ближнего зарубежья) и AUTOTAF (выпускаемых сайтом Метеоцентр.Азия) - выявление ошибок, онлайн-сопоставление с фактической погодой METAR, автоматическое внесение коррективов в прогнозы при резком отклонении фактической погоды от прогноза, подсчёт оправдываемости прогнозов по элементам и в целом;
- система обработки, анализа и отображения авиаметеорологической информации для применения провайдерами метеорологической информации.

Рекомендуем: Продам летний вязаный трикотаж купить.

Погода в Акбайтале - сегодня

Время (UTC), дата Ветер
(°,м/с) 
Видим.   Явления Облачность Т
(°С)
Тd
(°С)
f(%) Тe
(°С)
Pmin
(гПа)
dP
(гПа)
Po
(мм)
O2
(г/м3)
Тmin Tmax R s Состояние
почвы
00 22.04.17 210 (ЮЗ) н/о    5/0 средняя 
[Ac As]
+11.6 +4 60 +11  1015.8  1.5  741  286           
03 22.04.17 230 (ЮЗ) 20000 м    3/0 средняя 
[Ac cast]
+12 +4 58 +12  1018.1  2.4  743  286           
09 22.04.17 250 (З) 20000 м    ясно 
+22.4 +7.4 38 +22  1018.1  -0.3  743  276           
12 22.04.17 120 (ЮВ) 20000 м    ясно 
+24 +5.5 30 +24  1016.4  -1.4  742  274           
15 22.04.17 тихо ()   20000 м    4/0 средняя 
[Ac lent]
+21.3 +4.3 33 +21  1017.2  0.5  743  277    +24       
18 22.04.17 150 (ЮВ) н/о    ясно 
+17.5 +2.3 36 +18  1018  0.4  743  281    +24       
21 22.04.17 190 (Ю) н/о    4/0 средняя 
[Ac lent]
+15 +1.3 39 +16  1018.2  743  284           
00 23.04.17 190 (Ю) н/о    3/0 средняя 
[Ac lent]
+13.8 +1.5 43 +14  1018.4  0.1  743  285           
03 23.04.17 200 (Ю) 20000 м    ясно 
+14.4 +1.5 42 +15  1019.2  0.8  744  284           
06 23.04.17 250 (З) 20000 м    ясно 
+23 +6.4 34 +23  1019.1  0.7  744  276  +13.8         
09 23.04.17 230 (ЮЗ) 20000 м    ясно 
+25.4 +6.7 30 +25  1018.6  -0.3  744  273           
12 23.04.17 250 (З) 20000 м    ясно 
+24.6 +5.6 29 +25  1018.1  -0.5  744  274           
15 23.04.17 270 (З) 20000 м    5/0 средняя 
[Ac As]
+20.3 +3.2 32 +20  1018.5  -0.1  743  278    +24.6       
18 23.04.17 360 (С) н/о    4/0 средняя 
[Ac lent]
+16 +0.4 35 +17  1019.3  0.5  744  283    +24.6       
21 23.04.17 020 (С) н/о    ясно 
+13.2 -0.7 38 +14  1018.7  -0.9  743  286           
03 24.04.17 040 (СВ) 20000 м    ясно 
+12.9 +0.2 42 +13  1016.8  -0.2  742  285           
09 24.04.17 120 (ЮВ) 20000 м    ясно 
+28.2 +8.5 29 +28  1012.8  -2.1  740  269           
12 24.04.17 100 (В) 20000 м    ясно 
+29 +8.8 28 +29  1011.4  -1.3  739  268           
15 24.04.17 тихо ()   20000 м    ясно 
+24 +5.5 30 +24  1011.1  -0.7  738  273    +29       
18 24.04.17 100 (В) н/о    ясно 
+20.4 +3.6 33 +20  1011.8  0.3  739  276    +29       
21 24.04.17 140 (ЮВ) н/о    ясно 
+17.3 +2.1 36 +18  1012  -0.1  739  280           
00 25.04.17 150 (ЮВ) н/о    ясно 
+15.2 +1.5 39 +16  1012.3  0.1  739  282           
06 25.04.17 тихо ()   20000 м    6/0 верхняя 
[Ci ing]
+27 +8.5 31 +27  1011.5  0.2  739  269  +15.2         
09 25.04.17 200 (Ю) 20000 м    6/0 верхняя 
[Ci ing]
+29.6 +9.5 29 +30  1010.8  -0.4  739  267           
12 25.04.17 180 (Ю) 20000 м    6/0 верхняя 
[Ci ing]
+31.3 +9.9 27 +33  1010  -0.6  738  265           
Время (UTC), дата Ветер
(°,м/с) 
Видим.   Явления Облачность Т
(°С)
Тd
(°С)
f(%) Тe
(°С)
Pmin
(гПа)
dP
(гПа)
Po
(мм)
O2
(г/м3)
Тmin Tmax R s Состояние
почвы

Для получения пояснительной информации подведите курсор к названию столбца.

ПОГОДА в Акбайтале - архив

Всё, что Вы хотите узнать о погоде в Акбайтале - удобно и подробно!

Выберите нужную дату (начиная с 1 января 2015* года) и нажмите кнопку "Найти".
Будут отображены архивные сводки погоды по пункту Акбайтал, начиная с указанной даты.


Отображать данные в формате CSV (для использования в таблицах Excel)


Внимание! Наш архив погоды предназначен исключительно для личного некоммерческого использования в познавательных целях. Если Вам необходимы официальные справки о состоянии погоды (для производственных, юридических, коммерческих и т.п. целей), обращайтесь в органы Росгидромета.

*Примечание: данная дата относится к архиву по метеостанциям СССР (Россия, СНГ, Балтия).
Архив по метеостанциям Зарубежной Европы и Азии (кроме Китая) хранится 10 дней, по другим регионам земного шара (Китай, Африка, Америка, Австралия, Океания) - 1 день.

Акбайтал - район местоположения метеостанции


Название, широта, долгота, высота метеостанции:
Акбайтал 43.2°ш. 64.3°д. 234 м над ур. моря [Узбекистан]

Дополнительная информация

В oтличие oт бoльшинства пoгoдных сайтoв мы публикуем пoдрoбную метеoинфoрмацию в детальнoм прoфессиoнальнoм фoрмате.

Характеристики температуры и влажнoсти вoздуха измеряются на высoте 2 м в тени вдали oт зданий и деревьев.
Скoрoсть ветра измеряется на высoте 10 м (на урoвне рoста челoвека скoрoсть ветра ниже в 1.5-2 раза). Если метеoстанция нахoдится в гoрoде или в лесу, тo скoрoсть ветра занижена на 2-4 м/с пo сравнению с oткрытым местoм. Скoрoсть ветра над акватoриями крупных рек и oзёр, а также на вершинах хoлмoв на 2-5 м/с выше, чем в oбычных услoвиях.
Атмoсфернoе давление в разных тoчках местнoсти мoжет значительнo oтличаться oт давления на метеoстанции, в зависимoсти oт услoвий рельефа (при пoдъёме на 10 м давление пoнижается примернo на 1 мм рт.ст.).